[[{"header":{"parameterUnit":"m.s-1","parameterCategory":1,"la1":30.2991,"la2":30.254,"lo1":-89.0895,"lo2":-89.0444,"dy":0.0017,"dx":0.0017,"nx":28,"ny":28,"refTime":"2025-02-25T03:00:00:Z","depth":0,"parameterNumber":2,"parameterNumberName":"U-component_of_WINDS"},"data":[0,0,0,0,0,0,0,0,0,0,0,0,0,0,0,0,0,0,0,0,0,0,0,0,0,0,0,0,0,0,0,0,0,0,0,0,0,0,0,0,0,0,0,0,0,0,0,0,0,0,0,0,0,0,0,0,0,0,-1.5878,-1.5878,0,-1.587,-1.587,-1.587,-1.5851,-1.585,-1.585,-1.585,-1.5842,-1.5843,-1.5843,0,0,0,0,0,0,0,0,0,0,0,0,0,-1.5878,-1.5878,-1.5878,-1.5878,-1.5878,-1.587,-1.587,-1.587,-1.5851,-1.585,-1.585,-1.585,-1.5842,-1.5843,-1.5843,0,0,0,0,0,0,0,0,0,0,0,0,0,-1.5875,-1.5878,-1.5878,-1.5867,-1.5866,-1.587,-1.587,-1.587,-1.5851,-1.585,-1.585,-1.5849,-1.5842,-1.5842,-1.5843,-1.5856,0,0,-1.5844,-1.5844,0,0,0,0,0,0,0,0,-1.5875,-1.5875,-1.5869,-1.5868,-1.5867,-1.5861,-1.5867,-1.5865,-1.5851,-1.5857,-1.585,-1.5849,-1.5849,-1.5849,-1.5849,-1.5856,-1.5856,-1.5844,-1.5844,-1.5844,-1.5844,0,0,0,0,0,0,0,-1.5875,-1.5875,-1.5875,-1.5869,-1.5868,-1.5863,-1.5862,-1.5867,-1.5856,-1.5856,-1.5855,-1.5854,-1.5848,-1.5848,-1.5848,-1.5855,-1.5844,-1.5844,-1.5844,-1.5844,-1.5874,-1.5874,0,0,0,0,0,0,-1.5877,-1.5875,-1.5875,-1.5875,-1.587,-1.5864,-1.5863,-1.5863,-1.5856,-1.5855,-1.5855,-1.5853,-1.5848,-1.5848,-1.5848,-1.5864,-1.5844,-1.5844,-1.5844,-1.5873,-1.5874,-1.5875,0,0,0,0,0,0,-1.5877,-1.5877,-1.5875,-1.5875,-1.5874,-1.5864,-1.5866,-1.5864,-1.5864,-1.5855,-1.5853,-1.5857,-1.5848,-1.5848,-1.5854,-1.5863,-1.5844,-1.5844,-1.5872,-1.5873,-1.5874,-1.5895,0,0,0,0,0,0,-1.5877,-1.5877,-1.5882,-1.5875,-1.5874,-1.5882,-1.5866,-1.5864,-1.5864,-1.5862,-1.5856,-1.5855,-1.5847,-1.5854,-1.5855,-1.5863,-1.5845,-1.5872,-1.5873,-1.5874,-1.5894,-1.5897,-1.5899,0,0,0,0,0,-1.5877,-1.5888,-1.5882,-1.5882,-1.588,-1.5882,-1.5882,-1.5873,-1.5865,-1.587,-1.5864,-1.5855,-1.5862,-1.5855,-1.5855,-1.5864,-1.5871,-1.5873,-1.5874,-1.5893,-1.5896,-1.5899,0,0,0,0,0,0,-1.5897,-1.5887,-1.588,-1.589,-1.5887,-1.5879,-1.5885,-1.5877,-1.5877,-1.5875,-1.5864,-1.5863,-1.5871,-1.5868,-1.5861,-1.5877,-1.5865,-1.5867,-1.5879,-1.5882,-1.5885,-1.5886,-1.5845,0,0,0,0,0,-1.5903,-1.5905,-1.5896,-1.5905,-1.5904,-1.5895,-1.5896,-1.5889,-1.5886,-1.5885,-1.588,-1.5877,-1.5879,-1.588,-1.5881,-1.5893,-1.5892,-1.5899,-1.5902,-1.5904,-1.5906,-1.5913,-1.5916,-1.5879,-1.5879,-1.5879,0,0,-1.5914,-1.5909,-1.5911,-1.5909,-1.5906,-1.591,-1.5894,-1.5898,-1.5901,-1.5885,-1.5892,-1.5888,-1.5884,-1.5894,-1.5898,-1.5891,-1.5916,-1.5906,-1.5908,-1.5909,-1.5915,-1.5918,-1.5921,-1.588,-1.588,-1.588,0,0,-1.5937,-1.5933,-1.594,-1.5938,-1.5933,-1.5927,-1.5929,-1.5922,-1.5919,-1.5925,-1.5914,-1.5916,-1.5919,-1.5917,-1.5917,-1.5938,-1.593,-1.5939,-1.5954,-1.5961,-1.5964,-1.5966,-1.5975,-1.5978,-1.5941,-1.5941,-1.5941,0,-1.5952,-1.5956,-1.5945,-1.595,-1.595,-1.5935,-1.5943,-1.5941,-1.5937,-1.5938,-1.593,-1.5934,-1.593,-1.594,-1.5945,-1.5945,-1.5947,-1.594,-1.5964,-1.5967,-1.5969,-1.5977,-1.598,-1.5942,-1.5942,-1.5942,-1.5941,0,-1.5975,-1.5979,-1.5985,-1.5982,-1.5982,-1.5988,-1.5978,-1.598,-1.5973,-1.5967,-1.5974,-1.5969,-1.5969,-1.597,-1.5963,-1.5979,-1.5975,-1.5966,-1.5954,-1.5974,-1.5981,-1.5984,-1.5944,-1.5943,-1.5943,-1.5942,0,0,-1.6012,-1.6002,-1.6005,-1.6003,-1.5997,-1.6,-1.6005,-1.6005,-1.6007,-1.6004,-1.6009,-1.6012,-1.6003,-1.6003,-1.5995,-1.6001,-1.602,-1.5991,-1.5991,-1.5998,-1.6037,-1.6045,-1.6049,-1.6013,-1.6014,-1.6014,-1.6038,0,-1.6034,-1.6043,-1.6033,-1.6045,-1.6048,-1.6034,-1.6039,-1.6036,-1.603,-1.6032,-1.6027,-1.6029,-1.6017,-1.6017,-1.6022,-1.6016,-1.6028,-1.6014,-1.6019,-1.6019,-1.6022,-1.6052,-1.606,-1.6083,-1.604,-1.6041,-1.6041,0,-1.6062,-1.6061,-1.6072,-1.6066,-1.6067,-1.6071,-1.607,-1.6072,-1.6068,-1.6064,-1.6063,-1.6054,-1.606,-1.6047,-1.6054,-1.6046,-1.6047,-1.6044,-1.6045,-1.6046,-1.6033,-1.6056,-1.6089,-1.6093,-1.6046,-1.6045,-1.6045,0,-1.6089,-1.609,-1.6097,-1.6096,-1.6088,-1.6092,-1.6089,-1.6084,-1.6085,-1.6084,-1.6084,-1.6084,-1.6084,-1.6084,-1.6076,-1.6067,-1.6085,-1.6071,-1.6082,-1.6083,-1.6088,-1.6088,-1.6124,-1.6086,-1.6086,-1.6086,-1.6086,0,-1.6116,-1.6123,-1.6109,-1.6114,-1.6122,-1.6111,-1.6119,-1.6115,-1.6111,-1.6115,-1.6102,-1.6106,-1.6094,-1.6096,-1.6089,-1.6097,-1.6097,-1.6094,-1.6093,-1.6096,-1.6097,-1.6098,-1.6097,-1.6087,-1.6087,-1.6087,-1.6087,0,-1.6148,-1.6138,-1.6145,-1.6137,-1.6135,-1.6142,-1.6135,-1.6139,-1.6133,-1.6138,-1.6138,-1.6128,-1.6131,-1.6122,-1.6122,-1.6118,-1.613,-1.6125,-1.6131,-1.613,-1.6143,-1.6142,-1.6182,-1.6187,-1.6145,-1.6145,-1.6145,0,-1.6166,-1.6172,-1.6164,-1.6165,-1.6163,-1.6165,-1.6166,-1.6154,-1.6155,-1.6151,-1.6156,-1.6157,-1.6158,-1.6162,-1.6156,-1.6156,-1.6152,-1.6166,-1.6153,-1.6156,-1.6154,-1.6155,-1.6156,-1.6169,-1.617,-1.617,-1.6171,0,-1.62,-1.6195,-1.6196,-1.6195,-1.6196,-1.6195,-1.6193,-1.6195,-1.6183,-1.6184,-1.6187,-1.6187,-1.6188,-1.619,-1.6189,-1.6186,-1.6177,-1.6175,-1.6178,-1.6182,-1.6186,-1.6186,-1.6141,-1.6174,-1.6174,-1.6174,-1.6173,-1.6173,-1.6227,-1.6231,-1.6227,-1.6228,-1.6225,-1.6224,-1.6228,-1.6222,-1.6223,-1.6223,-1.6216,-1.6219,-1.6216,-1.6214,-1.6212,-1.6215,-1.6208,-1.6212,-1.6213,-1.6215,-1.6218,-1.6184,-1.6214,-1.6214,-1.6214,-1.6214,-1.6214,0,-1.6261,-1.6257,-1.6259,-1.6257,-1.6258,-1.6248,-1.6245,-1.6247,-1.6251,-1.6248,-1.6248,-1.6251,-1.6253,-1.6246,-1.6246,-1.625,-1.6246,-1.6251,-1.6252,-1.6251,-1.6223,-1.6221,-1.6254,-1.6254,-1.6254,-1.6254,-1.6254,-1.6254,-1.6279,-1.6287,-1.6282,-1.6288,-1.6284,-1.6287,-1.6287,-1.6286,-1.6283,-1.6287,-1.6288,-1.6283,-1.6279,-1.6279,-1.628,-1.6278,-1.628,-1.6286,-1.6283,-1.6257,-1.6253,-1.6249,-1.6248,-1.6286,-1.6286,-1.6312,-1.6312,-1.6312]},{"header":{"parameterUnit":"m.s-1","parameterCategory":1,"la1":30.2991,"la2":30.254,"lo1":-89.0895,"lo2":-89.0444,"dy":0.0017,"dx":0.0017,"nx":28,"ny":28,"refTime":"2025-02-25T03:00:00:Z","depth":0,"parameterNumber":3,"parameterNumberName":"V-component_of_WINDS"},"data":[0,0,0,0,0,0,0,0,0,0,0,0,0,0,0,0,0,0,0,0,0,0,0,0,0,0,0,0,0,0,0,0,0,0,0,0,0,0,0,0,0,0,0,0,0,0,0,0,0,0,0,0,0,0,0,0,0,0,-2.6862,-2.6861,0,-2.682,-2.6819,-2.6819,-2.6844,-2.6846,-2.6847,-2.6848,-2.68,-2.6797,-2.6795,0,0,0,0,0,0,0,0,0,0,0,0,0,-2.6961,-2.6959,-2.6862,-2.6861,-2.6861,-2.682,-2.6819,-2.6818,-2.6844,-2.6846,-2.6847,-2.6849,-2.68,-2.6797,-2.6795,0,0,0,0,0,0,0,0,0,0,0,0,0,-2.6918,-2.6958,-2.6862,-2.6869,-2.6869,-2.682,-2.6819,-2.6818,-2.6844,-2.6846,-2.6848,-2.6849,-2.6801,-2.6798,-2.6794,-2.6734,0,0,-2.6783,-2.6781,0,0,0,0,0,0,0,0,-2.692,-2.6914,-2.6868,-2.6868,-2.6868,-2.6839,-2.6836,-2.679,-2.6843,-2.6853,-2.6848,-2.685,-2.6811,-2.6807,-2.6794,-2.6732,-2.673,-2.6783,-2.678,-2.6779,-2.6778,0,0,0,0,0,0,0,-2.6923,-2.6916,-2.6845,-2.6867,-2.6868,-2.6873,-2.6869,-2.6828,-2.6822,-2.6852,-2.6854,-2.6849,-2.6811,-2.6798,-2.6793,-2.6729,-2.6783,-2.6779,-2.6777,-2.6776,-2.6618,-2.6616,0,0,0,0,0,0,-2.6926,-2.6918,-2.6846,-2.6844,-2.69,-2.6869,-2.6865,-2.6847,-2.6823,-2.6821,-2.6848,-2.6851,-2.6803,-2.6798,-2.6792,-2.6722,-2.6779,-2.6775,-2.6773,-2.662,-2.6617,-2.6615,0,0,0,0,0,0,-2.6928,-2.692,-2.6848,-2.6882,-2.6873,-2.6866,-2.6845,-2.6845,-2.6832,-2.6819,-2.6818,-2.6835,-2.6804,-2.6797,-2.6749,-2.672,-2.6774,-2.677,-2.6622,-2.6619,-2.6616,-2.658,0,0,0,0,0,0,-2.6931,-2.692,-2.6898,-2.6881,-2.6871,-2.6807,-2.6843,-2.6843,-2.6826,-2.6829,-2.6807,-2.6805,-2.6805,-2.6755,-2.6746,-2.6716,-2.6768,-2.6624,-2.6621,-2.6617,-2.6584,-2.6576,-2.657,0,0,0,0,0,-2.6934,-2.6888,-2.6897,-2.6888,-2.6844,-2.6805,-2.6799,-2.6802,-2.6823,-2.6801,-2.6793,-2.6806,-2.6725,-2.6749,-2.674,-2.6709,-2.6626,-2.6622,-2.6617,-2.6587,-2.6578,-2.657,0,0,0,0,0,0,-2.6899,-2.6886,-2.6895,-2.6842,-2.6825,-2.681,-2.6781,-2.6792,-2.6767,-2.6771,-2.6774,-2.6769,-2.6719,-2.6709,-2.6737,-2.665,-2.6679,-2.6672,-2.6659,-2.665,-2.6643,-2.6647,-2.6765,0,0,0,0,0,-2.6886,-2.6858,-2.6846,-2.6801,-2.6792,-2.6788,-2.6771,-2.6775,-2.6757,-2.6749,-2.6738,-2.6718,-2.6688,-2.6668,-2.664,-2.6582,-2.6578,-2.6556,-2.6549,-2.6543,-2.6538,-2.6508,-2.6498,-2.66,-2.66,-2.66,0,0,-2.6857,-2.6846,-2.6827,-2.6793,-2.678,-2.675,-2.6781,-2.6747,-2.6725,-2.6743,-2.6699,-2.6689,-2.6668,-2.6615,-2.6591,-2.6605,-2.6509,-2.6538,-2.6533,-2.653,-2.6502,-2.6492,-2.6484,-2.6597,-2.6598,-2.6598,0,0,-2.6789,-2.6777,-2.6739,-2.6726,-2.6707,-2.6706,-2.6696,-2.668,-2.6675,-2.6631,-2.6645,-2.6617,-2.6565,-2.655,-2.6535,-2.6464,-2.6475,-2.6454,-2.6417,-2.6388,-2.638,-2.6373,-2.6349,-2.634,-2.6449,-2.6448,-2.6448,0,-2.6754,-2.6711,-2.6717,-2.6683,-2.6668,-2.6686,-2.6647,-2.6633,-2.6605,-2.6594,-2.661,-2.6548,-2.6534,-2.6479,-2.6462,-2.6449,-2.6438,-2.6457,-2.6381,-2.6374,-2.6367,-2.6344,-2.6335,-2.6446,-2.6446,-2.6447,-2.6447,0,-2.6671,-2.664,-2.6611,-2.6587,-2.6568,-2.6531,-2.6531,-2.6512,-2.6518,-2.6514,-2.6469,-2.6453,-2.6423,-2.641,-2.6415,-2.6356,-2.6366,-2.6381,-2.641,-2.6355,-2.6334,-2.6325,-2.6443,-2.6444,-2.6444,-2.6445,0,0,-2.6578,-2.656,-2.6549,-2.6539,-2.652,-2.6496,-2.646,-2.6433,-2.6417,-2.6397,-2.6367,-2.6324,-2.634,-2.6323,-2.6326,-2.63,-2.6246,-2.6319,-2.6319,-2.6307,-2.6182,-2.6171,-2.616,-2.6253,-2.6252,-2.625,-2.6184,0,-2.651,-2.645,-2.6456,-2.6398,-2.6371,-2.6388,-2.6357,-2.6342,-2.6338,-2.6313,-2.6307,-2.6278,-2.6299,-2.629,-2.6265,-2.6258,-2.6221,-2.6263,-2.6225,-2.6224,-2.6231,-2.6149,-2.6137,-2.6075,-2.6175,-2.6174,-2.6173,0,-2.6422,-2.6403,-2.6343,-2.6331,-2.632,-2.6292,-2.6269,-2.6244,-2.6228,-2.6226,-2.6209,-2.6217,-2.618,-2.621,-2.616,-2.6188,-2.6173,-2.6167,-2.6165,-2.6162,-2.6196,-2.6144,-2.6055,-2.6046,-2.6159,-2.616,-2.6161,0,-2.6362,-2.632,-2.628,-2.6271,-2.6255,-2.6236,-2.6228,-2.6213,-2.6197,-2.6176,-2.6166,-2.6139,-2.6125,-2.6105,-2.6105,-2.6126,-2.6054,-2.6084,-2.6052,-2.6052,-2.6037,-2.6038,-2.5944,-2.6025,-2.6026,-2.6026,-2.6026,0,-2.6286,-2.6249,-2.6254,-2.6229,-2.6188,-2.6195,-2.6154,-2.6148,-2.6135,-2.6109,-2.6121,-2.6096,-2.6098,-2.6073,-2.6072,-2.6032,-2.6024,-2.6022,-2.6023,-2.6022,-2.6022,-2.6012,-2.6017,-2.6023,-2.6024,-2.6024,-2.6025,0,-2.6212,-2.6213,-2.6171,-2.6161,-2.6157,-2.6128,-2.6119,-2.6095,-2.6093,-2.6059,-2.6052,-2.6048,-2.6018,-2.6017,-2.5982,-2.5982,-2.5933,-2.5938,-2.594,-2.5941,-2.591,-2.5913,-2.5808,-2.5795,-2.5883,-2.5882,-2.5882,0,-2.6163,-2.6136,-2.6124,-2.6109,-2.6101,-2.6075,-2.606,-2.6065,-2.6048,-2.6028,-2.6007,-2.5979,-2.5958,-2.591,-2.5903,-2.5877,-2.5882,-2.5846,-2.5877,-2.5878,-2.5882,-2.5885,-2.5882,-2.584,-2.5839,-2.5839,-2.5838,0,-2.6078,-2.6081,-2.6059,-2.6038,-2.6021,-2.6004,-2.5988,-2.5974,-2.5978,-2.5958,-2.593,-2.5913,-2.588,-2.5852,-2.5827,-2.5818,-2.5828,-2.5828,-2.582,-2.5819,-2.5822,-2.5821,-2.5924,-2.5831,-2.5831,-2.5832,-2.5832,-2.5833,-2.6016,-2.5993,-2.5982,-2.5958,-2.5948,-2.5933,-2.5912,-2.5908,-2.5885,-2.586,-2.5863,-2.5832,-2.5817,-2.5785,-2.5774,-2.5749,-2.5761,-2.5748,-2.5745,-2.5742,-2.574,-2.5825,-2.5744,-2.5744,-2.5744,-2.5744,-2.5745,0,-2.5932,-2.5927,-2.5905,-2.5884,-2.5865,-2.5879,-2.5863,-2.5846,-2.5819,-2.5805,-2.5784,-2.5752,-2.5726,-2.5718,-2.5693,-2.5674,-2.5679,-2.5667,-2.5669,-2.5667,-2.573,-2.574,-2.5665,-2.5665,-2.5665,-2.5665,-2.5665,-2.5665,-2.5886,-2.585,-2.5851,-2.581,-2.5804,-2.5775,-2.5765,-2.5752,-2.5741,-2.5706,-2.5685,-2.5681,-2.5669,-2.5643,-2.562,-2.5618,-2.5609,-2.5596,-2.5596,-2.5654,-2.5662,-2.567,-2.568,-2.5593,-2.5593,-2.5536,-2.5535,-2.5535]}]]